User: anonymous   Login
Location: Unspecified
(0.0000°N, 0.0000°E)
Time: 12:30:42
(UTC+00:00)
Language:

Tiros 1 - Orbit

View from above orbital plane
View from above orbital plane
View from above satellite
View from above satellite

Ground track
Ground track

The orbit data is extracted from the following two-line orbital elements,

1    29U 60002B   17200.25991080 -.00000117 +00000-0 +13636-4 0  9996
2    29 048.3801 290.2492 0023998 358.7989 001.2861 14.74175869061529
Epoch (UTC): 19 July 2017 06:14:16
Eccentricity: 0.0023998
inclination: 48.3801°
perigee height: 631 km
apogee height: 664 km
right ascension of ascending node: 290.2492°
argument of perigee: 358.7989°
revolutions per day: 14.74175869
mean anomaly at epoch: 1.2861°
orbit number at epoch: 6152

The dashed part of the orbit path shows where the satellite is in the earth's shadow,  

DLR